{"data":{"norad_id":68954,"intl_designator":"2026-099D","name":"STARLINK-37301","alt_names":[],"object_type":"PAYLOAD","status":"ACTIVE","operator":null,"country":"US","launch_date":"2026-05-01","launch_site_code":"AFETR","launch_vehicle":null,"mission":null,"orbit_class":"UNKNOWN","rcs_meters":null,"size_class":null,"mass_kg":null,"dimensions":null,"purposes":["comms"],"wikipedia_slug":null,"has_3d_model":false,"image_url":null,"decayed_at":null,"tle_current":{"epoch":"2026-05-25T04:00:03.998880Z","epoch_age_seconds":50917,"freshness":"FRESH","line1":"1 68954U 26099D   26145.16671295  .00082752  00000+0  14833-2 0  9997","line2":"2 68954  53.1592 270.6925 0000987  52.8629 294.2956 15.49249534  4968","mean_motion":15.49249534,"eccentricity":9.87e-5,"inclination_deg":53.1592,"raan_deg":270.6925,"arg_perigee_deg":52.8629,"mean_anomaly_deg":294.2956,"bstar":0.0014833,"rev_number":496,"period_min":92.948228700258,"perigee_km":418.24933818516,"apogee_km":419.59107727797,"semimajor_km":6797.0572077316,"source":"CELESTRAK","updated_at":"2026-05-25T13:38:22.072357Z"}}}